Location: Cantaing
(50.1487°N, 3.1675°E)
Time: 06:57:56
(UTC+00:00)

Cosmos 2154 Rocket - Pass Details

Date: 14 January 2026
Orbit: 965 x 997 km, 82.9° (Epoch: 10 February)

Event Time Altitude Azimuth Distance (km) Brightness Sun altitude
Rises 05:53:28 0° 193° (SSW) 3,696 7.0 -16.6°
Reaches altitude 10° 05:55:59 10° 195° (SSW) 2,748 6.4 -16.2°
Maximum altitude 06:02:18 75° 281° (W) 1,023 3.9 -15.3°
Drops below altitude 10° 06:08:36 10° 7° (N) 2,745 6.3 -14.3°
Sets 06:11:08 0° 9° (N) 3,692 7.0 -13.9°
